[[{"header":{"parameterUnit":"m.s-1","parameterCategory":1,"la1":30.2991,"la2":30.254,"lo1":-89.0895,"lo2":-89.0444,"dy":0.0017,"dx":0.0017,"nx":28,"ny":28,"refTime":"2023-09-27T03:00:00:Z","depth":0,"parameterNumber":2,"parameterNumberName":"U-component_of_WINDS"},"data":[0,0,0,0,0,0,0,0,0,0,0,0,0,0,0,0,0,0,0,0,0,0,0,0,0,0,0,0,0,0,0,0,0,0,0,0,0,0,0,0,0,0,0,0,0,0,0,0,0,0,0,0,0,0,0,0,0,0,-3.3508,-3.3509,0,-3.3527,-3.3527,-3.3527,-3.3434,-3.3432,-3.3429,-3.3426,-3.3442,-3.3445,-3.3448,0,0,0,0,0,0,0,0,0,0,0,0,0,-3.3389,-3.3392,-3.3508,-3.3509,-3.3509,-3.3527,-3.3527,-3.3527,-3.3435,-3.3431,-3.3428,-3.3425,-3.3441,-3.3444,-3.3448,0,0,0,0,0,0,0,0,0,0,0,0,0,-3.3428,-3.3393,-3.3508,-3.3465,-3.3461,-3.3527,-3.3527,-3.3528,-3.3435,-3.3431,-3.3427,-3.3424,-3.344,-3.3444,-3.3448,-3.3556,0,0,-3.3462,-3.3464,0,0,0,0,0,0,0,0,-3.3426,-3.3432,-3.3471,-3.3468,-3.3464,-3.3474,-3.3491,-3.3537,-3.3436,-3.3445,-3.3426,-3.3422,-3.3456,-3.3458,-3.3471,-3.3556,-3.3557,-3.3462,-3.3465,-3.3467,-3.3468,0,0,0,0,0,0,0,-3.3423,-3.3431,-3.3516,-3.3472,-3.3467,-3.3443,-3.3444,-3.3499,-3.3473,-3.3444,-3.3437,-3.3441,-3.3453,-3.3467,-3.347,-3.3557,-3.3462,-3.3466,-3.3468,-3.347,-3.3732,-3.3736,0,0,0,0,0,0,-3.3427,-3.3429,-3.3515,-3.3516,-3.3435,-3.3449,-3.345,-3.3475,-3.3472,-3.3467,-3.3444,-3.3437,-3.3461,-3.3465,-3.3471,-3.3595,-3.3466,-3.3471,-3.3473,-3.3727,-3.3733,-3.3737,0,0,0,0,0,0,-3.3425,-3.3435,-3.3514,-3.3471,-3.3479,-3.3455,-3.3484,-3.3477,-3.3491,-3.3472,-3.3466,-3.3464,-3.3458,-3.3464,-3.3535,-3.3594,-3.3473,-3.3477,-3.3722,-3.3729,-3.3735,-3.3846,0,0,0,0,0,0,-3.3422,-3.3435,-3.3476,-3.3473,-3.3482,-3.358,-3.3488,-3.3481,-3.3499,-3.3489,-3.3489,-3.3484,-3.3455,-3.3529,-3.354,-3.3598,-3.348,-3.3717,-3.3725,-3.3733,-3.3837,-3.3855,-3.3871,0,0,0,0,0,-3.3418,-3.3506,-3.3479,-3.349,-3.3533,-3.3584,-3.3589,-3.3554,-3.3505,-3.3545,-3.3533,-3.3484,-3.3587,-3.3537,-3.3548,-3.3609,-3.3713,-3.3723,-3.3732,-3.3829,-3.3852,-3.3871,0,0,0,0,0,0,-3.3515,-3.3505,-3.3474,-3.3565,-3.3576,-3.3568,-3.3618,-3.358,-3.3604,-3.3594,-3.3549,-3.355,-3.3628,-3.3626,-3.3571,-3.3713,-3.3641,-3.3653,-3.3711,-3.3732,-3.3749,-3.3747,-3.3484,0,0,0,0,0,-3.3548,-3.3591,-3.3579,-3.3659,-3.3667,-3.3642,-3.3663,-3.3636,-3.3645,-3.3649,-3.3642,-3.3652,-3.3686,-3.3709,-3.374,-3.3837,-3.3835,-3.3884,-3.3901,-3.3916,-3.3926,-3.3976,-3.3998,-3.3769,-3.3769,-3.3769,0,0,-3.3614,-3.3614,-3.3644,-3.3679,-3.3685,-3.3729,-3.3646,-3.3697,-3.3729,-3.3656,-3.3722,-3.3718,-3.3726,-3.3811,-3.3848,-3.3811,-3.3989,-3.3928,-3.394,-3.3942,-3.3989,-3.401,-3.403,-3.3776,-3.3775,-3.3774,0,0,-3.3758,-3.3763,-3.383,-3.3838,-3.3848,-3.3831,-3.3848,-3.3846,-3.3841,-3.3907,-3.3853,-3.3891,-3.3951,-3.3959,-3.3971,-3.412,-3.4076,-3.4131,-3.422,-3.427,-3.4288,-3.4304,-3.4355,-3.4374,-3.4142,-3.4143,-3.4143,0,-3.3839,-3.3905,-3.3869,-3.3924,-3.394,-3.3879,-3.3946,-3.3955,-3.3974,-3.3987,-3.3946,-3.4021,-3.4022,-3.4107,-3.4144,-3.4156,-3.4172,-3.413,-3.4288,-3.4304,-3.4318,-3.4367,-3.4386,-3.4149,-3.4148,-3.4148,-3.4147,0,-3.4003,-3.405,-3.4103,-3.4124,-3.4147,-3.4208,-3.4181,-3.4209,-3.418,-3.4168,-3.4236,-3.4236,-3.4265,-3.4284,-3.4256,-3.4365,-3.4342,-3.4296,-3.4223,-3.4347,-3.4392,-3.441,-3.4158,-3.4156,-3.4154,-3.4152,0,0,-3.4206,-3.4209,-3.4229,-3.4238,-3.4246,-3.428,-3.4338,-3.4368,-3.4392,-3.4408,-3.4454,-3.4508,-3.4466,-3.4479,-3.4452,-3.4497,-3.4613,-3.4445,-3.4444,-3.4474,-3.4732,-3.4765,-3.4787,-3.4585,-3.4589,-3.4591,-3.4731,0,-3.4345,-3.4445,-3.4415,-3.4515,-3.4557,-3.45,-3.455,-3.456,-3.455,-3.4584,-3.4572,-3.461,-3.4552,-3.456,-3.4602,-3.459,-3.4664,-3.458,-3.4626,-3.4628,-3.4624,-3.4811,-3.4846,-3.4977,-3.4748,-3.4751,-3.4753,0,-3.452,-3.4545,-3.4649,-3.465,-3.4667,-3.4712,-3.4738,-3.4771,-3.4781,-3.4771,-3.4787,-3.4752,-3.4807,-3.4736,-3.4812,-3.4756,-3.4773,-3.4771,-3.4775,-3.4776,-3.4696,-3.4815,-3.5018,-3.5037,-3.4781,-3.4779,-3.4777,0,-3.4656,-3.4715,-3.4785,-3.4794,-3.4798,-3.4831,-3.4834,-3.484,-3.486,-3.4883,-3.4895,-3.4923,-3.4938,-3.4961,-3.4933,-3.4884,-3.5013,-3.4939,-3.5004,-3.5005,-3.5031,-3.503,-3.5238,-3.5047,-3.5047,-3.5046,-3.5046,0,-3.4813,-3.4878,-3.4846,-3.4888,-3.496,-3.4926,-3.4998,-3.4994,-3.5,-3.504,-3.4993,-3.5032,-3.4994,-3.503,-3.5009,-3.5074,-3.5081,-3.5074,-3.5067,-3.5077,-3.5077,-3.5085,-3.5075,-3.5052,-3.505,-3.5049,-3.5048,0,-3.4975,-3.4956,-3.5028,-3.5026,-3.5028,-3.508,-3.5078,-3.5117,-3.5105,-3.5157,-3.5167,-3.5147,-3.5186,-3.5162,-3.5201,-3.5187,-3.5272,-3.5253,-3.5269,-3.5263,-3.5328,-3.5322,-3.5547,-3.5575,-3.5368,-3.537,-3.5372,0,-3.5075,-3.5124,-3.5129,-3.5153,-3.516,-3.5199,-3.522,-3.5189,-3.5212,-3.5228,-3.5265,-3.5301,-3.5327,-3.5392,-3.538,-3.541,-3.539,-3.5468,-3.5394,-3.5403,-3.5389,-3.5386,-3.539,-3.5482,-3.5484,-3.5486,-3.5488,0,-3.5255,-3.5243,-3.5276,-3.5306,-3.5332,-3.5354,-3.5371,-3.5394,-3.5363,-3.5391,-3.5431,-3.5452,-3.5493,-3.5528,-3.5554,-3.5555,-3.5516,-3.5511,-3.5527,-3.5537,-3.5543,-3.5539,-3.5307,-3.5506,-3.5504,-3.5502,-3.5501,-3.5501,-3.5387,-3.5428,-3.5438,-3.5476,-3.5487,-3.5505,-3.5541,-3.5535,-3.5568,-3.5599,-3.5579,-3.5626,-3.5635,-3.5665,-3.5672,-3.5708,-3.5676,-3.57,-3.5706,-3.5711,-3.572,-3.554,-3.5712,-3.5712,-3.5711,-3.5711,-3.5711,0,-3.5563,-3.5567,-3.5602,-3.5629,-3.5659,-3.5623,-3.564,-3.5667,-3.571,-3.5722,-3.575,-3.5796,-3.583,-3.5822,-3.5853,-3.5883,-3.5866,-3.5892,-3.5888,-3.5889,-3.5747,-3.5729,-3.5905,-3.5905,-3.5905,-3.5905,-3.5905,-3.5905,-3.5657,-3.5725,-3.5715,-3.5787,-3.579,-3.5837,-3.585,-3.5866,-3.5876,-3.593,-3.5959,-3.5955,-3.5959,-3.599,-3.6019,-3.6016,-3.6028,-3.6061,-3.6051,-3.5918,-3.5899,-3.588,-3.5863,-3.6065,-3.6065,-3.6189,-3.619,-3.6191]},{"header":{"parameterUnit":"m.s-1","parameterCategory":1,"la1":30.2991,"la2":30.254,"lo1":-89.0895,"lo2":-89.0444,"dy":0.0017,"dx":0.0017,"nx":28,"ny":28,"refTime":"2023-09-27T03:00:00:Z","depth":0,"parameterNumber":3,"parameterNumberName":"V-component_of_WINDS"},"data":[0,0,0,0,0,0,0,0,0,0,0,0,0,0,0,0,0,0,0,0,0,0,0,0,0,0,0,0,0,0,0,0,0,0,0,0,0,0,0,0,0,0,0,0,0,0,0,0,0,0,0,0,0,0,0,0,0,0,-0.7815,-0.7816,0,-0.7985,-0.7987,-0.7989,-0.8072,-0.8072,-0.8072,-0.8072,-0.8249,-0.8254,-0.8259,0,0,0,0,0,0,0,0,0,0,0,0,0,-0.7562,-0.7566,-0.7814,-0.7817,-0.7819,-0.7985,-0.7987,-0.799,-0.8072,-0.8072,-0.8072,-0.8072,-0.8248,-0.8254,-0.8259,0,0,0,0,0,0,0,0,0,0,0,0,0,-0.7696,-0.7567,-0.7814,-0.788,-0.7887,-0.7985,-0.7987,-0.799,-0.8072,-0.8072,-0.8072,-0.8072,-0.8246,-0.8253,-0.826,-0.8306,0,0,-0.8282,-0.8285,0,0,0,0,0,0,0,0,-0.7688,-0.7705,-0.7868,-0.7875,-0.7884,-0.8007,-0.7964,-0.8096,-0.8072,-0.8002,-0.8072,-0.8072,-0.8169,-0.8183,-0.8215,-0.8314,-0.8322,-0.8283,-0.8287,-0.829,-0.8292,0,0,0,0,0,0,0,-0.7679,-0.7698,-0.7882,-0.787,-0.788,-0.7901,-0.792,-0.7989,-0.8084,-0.8008,-0.8014,-0.8033,-0.8174,-0.8208,-0.822,-0.8325,-0.8282,-0.8289,-0.8293,-0.8296,-0.847,-0.847,0,0,0,0,0,0,-0.7658,-0.769,-0.7877,-0.7887,-0.7784,-0.7906,-0.7927,-0.7968,-0.8083,-0.8101,-0.8033,-0.8036,-0.8196,-0.8211,-0.8226,-0.8288,-0.829,-0.8297,-0.8301,-0.847,-0.847,-0.847,0,0,0,0,0,0,-0.7653,-0.7674,-0.787,-0.779,-0.7817,-0.791,-0.7955,-0.7971,-0.8006,-0.8102,-0.812,-0.8051,-0.8196,-0.8216,-0.8285,-0.8295,-0.83,-0.8306,-0.8469,-0.847,-0.847,-0.8411,0,0,0,0,0,0,-0.7645,-0.7672,-0.769,-0.779,-0.7821,-0.7925,-0.7956,-0.7975,-0.8017,-0.8023,-0.8123,-0.814,-0.8198,-0.8274,-0.8292,-0.8305,-0.8312,-0.8469,-0.8469,-0.847,-0.8412,-0.8409,-0.8406,0,0,0,0,0,-0.7636,-0.7667,-0.769,-0.7712,-0.7845,-0.7926,-0.7943,-0.8008,-0.8018,-0.8037,-0.8099,-0.8137,-0.829,-0.828,-0.8302,-0.8317,-0.8469,-0.8469,-0.847,-0.8413,-0.841,-0.8406,0,0,0,0,0,0,-0.7567,-0.7681,-0.7708,-0.7773,-0.7839,-0.7939,-0.7966,-0.8002,-0.8067,-0.807,-0.8149,-0.8171,-0.8233,-0.8282,-0.8268,-0.8367,-0.8383,-0.8388,-0.8333,-0.833,-0.8327,-0.8315,-0.8318,0,0,0,0,0,-0.7558,-0.7613,-0.7711,-0.7758,-0.779,-0.7872,-0.7909,-0.7953,-0.8025,-0.8054,-0.8121,-0.819,-0.8254,-0.8295,-0.8359,-0.8419,-0.8442,-0.844,-0.8437,-0.8434,-0.8438,-0.8473,-0.8473,-0.8473,-0.8473,-0.8473,0,0,-0.7543,-0.7612,-0.7643,-0.7746,-0.7803,-0.7858,-0.7895,-0.7953,-0.7995,-0.8063,-0.8132,-0.8184,-0.8266,-0.833,-0.8362,-0.8373,-0.8443,-0.8435,-0.8432,-0.8438,-0.8474,-0.8474,-0.8474,-0.8473,-0.8473,-0.8473,0,0,-0.7544,-0.7601,-0.7647,-0.7702,-0.7786,-0.784,-0.7851,-0.7946,-0.7983,-0.8053,-0.8105,-0.8157,-0.8265,-0.8321,-0.8364,-0.8384,-0.8422,-0.8403,-0.8388,-0.8422,-0.8422,-0.8422,-0.843,-0.8432,-0.8406,-0.8406,-0.8406,0,-0.7514,-0.76,-0.7666,-0.7721,-0.7765,-0.7827,-0.7875,-0.7925,-0.8026,-0.8056,-0.8066,-0.8203,-0.8262,-0.8341,-0.8346,-0.8378,-0.8393,-0.8393,-0.8416,-0.8417,-0.8419,-0.8427,-0.843,-0.8403,-0.8403,-0.8404,-0.8404,0,-0.7559,-0.7618,-0.7645,-0.7739,-0.7787,-0.7837,-0.7912,-0.7952,-0.7991,-0.8044,-0.8114,-0.8188,-0.8268,-0.829,-0.8329,-0.8374,-0.8378,-0.8401,-0.8419,-0.8415,-0.8424,-0.8428,-0.8399,-0.84,-0.8401,-0.8402,0,0,-0.7523,-0.7652,-0.7661,-0.7705,-0.7801,-0.7848,-0.7901,-0.7979,-0.8011,-0.8078,-0.8126,-0.8215,-0.8237,-0.8285,-0.8331,-0.8361,-0.8372,-0.8381,-0.8384,-0.8377,-0.8426,-0.8409,-0.8411,-0.8397,-0.8397,-0.8398,-0.8419,0,-0.7537,-0.7635,-0.7696,-0.7769,-0.7824,-0.7883,-0.793,-0.7994,-0.8045,-0.8099,-0.8156,-0.8218,-0.8241,-0.8271,-0.8302,-0.8364,-0.8383,-0.8363,-0.8442,-0.8444,-0.8421,-0.8416,-0.8398,-0.8415,-0.8423,-0.8424,-0.8424,0,-0.7568,-0.7632,-0.771,-0.78,-0.7826,-0.7866,-0.7942,-0.7993,-0.8067,-0.8102,-0.8154,-0.8201,-0.826,-0.8272,-0.8355,-0.8339,-0.8375,-0.841,-0.8412,-0.8423,-0.8435,-0.8427,-0.8422,-0.8424,-0.843,-0.843,-0.843,0,-0.7534,-0.764,-0.7701,-0.7736,-0.7842,-0.7869,-0.7915,-0.7989,-0.8031,-0.8097,-0.8125,-0.8197,-0.8237,-0.8292,-0.8356,-0.8359,-0.8433,-0.845,-0.8464,-0.8462,-0.8478,-0.8476,-0.8479,-0.8499,-0.8499,-0.8499,-0.8499,0,-0.7544,-0.759,-0.7687,-0.7724,-0.7777,-0.7847,-0.7897,-0.7948,-0.8013,-0.8062,-0.8118,-0.8162,-0.8244,-0.8299,-0.835,-0.8411,-0.8428,-0.8459,-0.8472,-0.8454,-0.845,-0.848,-0.8481,-0.85,-0.85,-0.8499,-0.8499,0,-0.7516,-0.7582,-0.7653,-0.7747,-0.7771,-0.7806,-0.7887,-0.7926,-0.7979,-0.804,-0.8058,-0.8141,-0.8208,-0.8278,-0.8369,-0.8403,-0.8463,-0.848,-0.8437,-0.8445,-0.8455,-0.8453,-0.8477,-0.8484,-0.8498,-0.8498,-0.8498,0,-0.7519,-0.7555,-0.7653,-0.7689,-0.7733,-0.779,-0.7833,-0.7902,-0.7945,-0.8032,-0.806,-0.8131,-0.8192,-0.8297,-0.8366,-0.8436,-0.8456,-0.8459,-0.8467,-0.8448,-0.8457,-0.8454,-0.8459,-0.8457,-0.8456,-0.8456,-0.8456,0,-0.7517,-0.7548,-0.7607,-0.7677,-0.7727,-0.7786,-0.7847,-0.7873,-0.7955,-0.8,-0.8069,-0.8115,-0.8208,-0.8278,-0.8356,-0.8404,-0.8444,-0.8452,-0.846,-0.8443,-0.8416,-0.8431,-0.8431,-0.8452,-0.8452,-0.8453,-0.8453,-0.8453,-0.7505,-0.754,-0.7614,-0.7678,-0.7731,-0.7787,-0.7827,-0.7884,-0.7943,-0.8023,-0.806,-0.8129,-0.8202,-0.8311,-0.8358,-0.8413,-0.8424,-0.8434,-0.8437,-0.8439,-0.8435,-0.8406,-0.8427,-0.8428,-0.8428,-0.8428,-0.8428,0,-0.7507,-0.7557,-0.7615,-0.7698,-0.7748,-0.7779,-0.7849,-0.7889,-0.7948,-0.8013,-0.8071,-0.8149,-0.8217,-0.8291,-0.8363,-0.8393,-0.8413,-0.841,-0.8409,-0.842,-0.842,-0.8407,-0.8393,-0.8393,-0.8393,-0.8393,-0.8393,-0.8393,-0.7514,-0.7575,-0.7614,-0.7701,-0.7752,-0.7819,-0.7855,-0.7907,-0.7959,-0.8044,-0.81,-0.8147,-0.8215,-0.8293,-0.8356,-0.8376,-0.8401,-0.8392,-0.8417,-0.8417,-0.842,-0.8422,-0.841,-0.8397,-0.8397,-0.8413,-0.8413,-0.8413]}]]